Theta_e
314 312 313 312 312 312 312 314 313 314 314 315 314 313 313 312 312 311 311 311 311 312 313 317 316 316 320 327 329 333 331 329 330 329 327 326 326 328 329 329 328 328 327 327
315 314 313 313 314 315 314 314 313 312 313 315 314 314 313 313 313 312 313 312 312 312 313 314 316 315 317 325 329 331 330 328 328 325 323 322 323 324 327 327 325 325 326 326
313 315 313 312 314 315 314 314 313 312 314 314 314 313 314 314 314 313 313 313 313 312 313 315 312 314 316 322 327 328 328 327 325 324 321 322 322 322 321 321 321 322 321 320
314 314 313 313 314 314 314 313 312 313 314 313 314 314 314 313 314 315 314 313 313 313 313 312 312 313 314 315 319 326 326 326 324 320 321 320 321 318 320 322 320 320 319 319
314 313 313 314 314 313 314 314 314 315 314 315 315 314 313 312 312 312 312 313 315 315 313 313 311 313 313 313 314 318 322 323 322 320 318 317 317 318 319 319 317 316 316 316
314 313 314 314 313 313 314 315 316 316 315 315 313 312 312 312 314 314 313 317 313 311 309 308 310 311 312 312 313 315 318 319 318 317 315 313 312 313 313 313 314 313 312 314
315 314 313 313 313 313 315 315 316 320 317 316 313 313 313 318 316 317 317 315 313 311 309 307 307 308 310 311 312 313 314 314 315 313 313 310 310 312 311 310 310 310 309 309
314 315 314 312 314 314 314 314 316 317 321 317 315 317 317 318 318 318 316 313 312 310 310 308 307 308 309 310 311 311 311 312 312 311 310 309 309 310 310 307 307 308 310 312
313 313 314 313 313 314 315 316 315 317 311 317 317 316 316 317 317 316 316 314 312 311 309 307 307 309 309 309 309 309 309 310 311 309 307 307 307 307 306 306 305 306 306 307
316 317 315 313 313 313 314 315 317 318 320 318 314 315 316 318 316 314 315 314 312 311 307 306 305 308 308 308 308 308 308 309 309 308 307 307 306 306 306 305 304 303 305 305
314 317 316 314 314 315 315 315 317 317 318 318 316 315 317 318 316 317 316 316 312 309 307 306 305 307 307 307 306 306 307 307 308 306 306 306 305 304 302 305 305 303 303 301
316 319 317 316 314 314 314 315 317 319 319 317 318 318 315 314 313 312 312 311 309 309 307 305 305 306 306 306 306 306 306 306 306 306 305 304 302 301 300 301 302 301 300 299
316 315 322 320 318 315 316 316 316 317 317 317 319 319 312 311 311 311 310 309 308 308 306 305 304 304 305 306 306 306 306 305 305 305 304 303 301 299 298 298 298 298 298 297
313 310 316 324 319 318 318 318 318 318 321 319 320 320 317 317 316 313 313 311 308 306 305 304 303 303 304 305 305 306 305 305 304 303 303 302 300 298 298 297 297 296 296 295
311 315 313 314 311 311 313 313 314 316 318 321 320 320 318 316 315 315 312 312 308 307 306 305 304 303 304 304 304 304 304 304 303 302 302 300 299 297 296 295 295 294 293 292
312 314 313 313 313 312 314 313 313 315 315 317 319 318 315 315 314 313 314 314 309 308 307 305 304 304 305 306 305 304 304 303 303 302 300 299 297 296 294 293 293 292 290 289
310 312 313 316 313 314 313 313 314 314 315 315 318 316 315 314 315 315 314 313 314 313 311 309 306 305 306 306 306 304 305 303 302 301 299 298 296 295 293 292 291 290 289 288
308 310 309 312 309 311 309 311 313 314 314 313 313 305 305 305 307 311 307 307 309 309 309 307 305 305 306 306 306 305 303 302 301 300 298 297 295 294 292 291 289 288 288 287
308 307 308 308 306 306 306 308 312 314 310 305 306 305 304 303 306 311 301 302 303 303 302 301 300 300 299 299 301 302 301 300 299 298 296 296 295 293 291 289 288 287 286 284
305 304 304 305 306 307 307 305 306 309 311 301 304 305 304 302 304 306 300 300 300 301 300 299 298 297 297 297 297 297 297 297 296 296 295 295 293 292 291 290 288 286 285 285
305 306 308 307 303 304 303 304 305 308 307 303 302 302 300 301 302 302 299 298 299 299 299 298 297 295 294 293 293 294 294 294 295 294 294 293 292 291 291 289 287 286 284 283
305 306 307 307 307 305 302 304 308 303 303 302 301 301 302 300 300 299 297 297 296 296 297 297 295 295 294 292 291 292 292 292 292 292 292 291 290 289 288 287 285 284 283 282
297 303 303 304 303 301 300 298 300 302 300 300 302 300 300 299 299 298 297 296 294 294 294 294 293 292 293 292 290 290 291 291 290 290 290 289 288 287 287 285 284 283 282 281
297 300 298 298 300 302 298 298 299 299 299 300 299 298 297 297 296 295 295 293 292 294 294 293 292 291 291 291 290 289 289 289 289 289 288 287 286 285 285 285 284 283 282 282
296 298 295 296 297 296 295 296 297 298 298 297 295 294 294 293 293 292 292 292 292 292 293 293 291 290 290 291 289 288 288 288 287 287 287 286 285 285 285 284 284 284 284 283
294 295 296 295 295 294 294 294 294 294 294 293 293 294 293 292 292 291 290 291 292 291 291 290 289 288 289 289 288 287 287 287 286 286 285 285 284 284 284 283 283 283 283 283
Wind_Speed
7 4 6 10 11 9 8 4 8 2 6 5 8 10 10 10 9 10 10 10 10 10 10 24 30 31 26 27 31 34 33 33 33 32 29 28 27 27 27 28 28 28 27 29
3 8 9 9 2 2 8 5 7 8 6 2 6 12 14 13 11 12 15 11 11 9 9 12 28 32 30 28 29 29 31 32 35 35 30 27 29 26 27 28 27 27 28 31
10 3 13 9 3 1 5 6 5 7 4 6 5 8 12 11 11 15 14 15 11 11 8 4 14 29 29 30 27 28 28 29 28 30 29 25 22 20 24 26 27 27 28 27
8 10 3 4 8 7 6 4 9 6 2 4 4 6 5 10 9 9 11 10 10 10 8 8 11 17 21 23 24 26 26 27 26 23 28 30 28 22 28 30 28 26 26 27
4 6 8 9 5 7 4 3 2 3 3 6 4 5 6 12 8 10 12 10 8 4 8 6 8 16 14 16 23 23 25 24 27 26 22 25 25 24 24 25 25 26 26 26
2 2 2 3 4 6 8 5 4 1 2 6 7 7 4 8 7 7 8 4 8 8 8 8 9 6 8 11 17 20 23 22 24 27 23 21 22 19 22 23 27 29 28 27
5 8 4 2 6 5 5 6 2 2 2 9 7 7 9 3 6 3 3 6 7 8 7 6 6 4 7 10 13 18 20 19 22 23 23 19 18 22 24 23 27 30 28 27
11 7 12 8 10 9 10 8 5 7 5 5 2 7 5 3 2 2 7 9 8 8 7 6 7 9 11 12 14 15 19 20 21 23 23 22 23 20 23 22 24 27 28 26
7 10 6 8 6 12 6 9 6 5 2 2 5 7 9 6 9 8 5 8 9 8 8 8 8 10 12 13 14 15 17 18 18 21 20 22 22 21 21 20 20 21 21 22
3 6 1 3 2 7 6 3 3 3 4 5 8 6 9 5 9 12 8 10 8 8 8 7 7 11 11 12 13 15 16 17 17 18 17 20 20 22 23 22 21 20 19 19
9 3 3 4 7 10 5 4 5 5 5 5 5 6 1 5 6 6 6 2 7 8 7 5 5 9 9 11 14 15 17 18 20 20 21 21 21 20 20 22 23 23 22 21
7 0 9 4 3 4 4 11 12 5 4 5 3 13 3 7 7 8 8 8 7 5 6 6 7 11 12 12 12 14 16 17 20 21 22 21 21 21 22 23 23 24 23 21
2 2 4 5 3 3 3 4 10 12 2 6 5 10 4 10 8 6 6 6 3 4 5 4 5 8 11 12 13 16 17 19 20 21 24 24 24 24 24 23 23 22 22 22
3 3 2 2 1 3 1 4 5 2 6 16 16 13 4 9 8 3 2 4 6 6 5 4 5 8 12 12 16 20 23 23 23 25 27 27 27 27 26 24 23 22 21 22
5 4 4 4 4 2 2 3 4 2 3 5 6 17 7 11 9 4 6 3 6 6 7 8 8 7 14 15 17 21 22 23 23 27 28 28 26 25 25 25 23 22 22 21
5 3 5 3 8 8 6 11 10 10 10 10 14 25 18 18 12 10 10 10 8 8 10 9 9 8 12 18 23 24 25 23 25 29 30 27 25 25 25 25 25 24 23 23
5 4 4 0 1 8 8 14 15 9 11 11 9 14 11 7 7 8 8 7 7 6 5 6 7 9 16 22 24 24 26 23 28 30 28 27 26 27 27 26 24 23 24 23
4 3 1 2 1 4 4 3 9 17 10 5 6 9 7 6 7 7 13 13 14 13 9 7 7 12 14 15 14 20 21 23 27 29 27 27 29 29 28 27 25 24 25 25
5 3 1 2 3 6 11 4 7 8 3 2 4 6 6 9 6 2 10 7 6 7 7 11 15 16 17 15 12 12 15 19 22 26 27 27 29 29 28 28 27 25 25 25
3 1 3 3 4 5 4 3 2 4 3 4 3 2 2 6 3 3 7 7 8 10 12 15 18 18 17 16 13 11 12 14 18 21 23 25 28 29 29 28 26 25 25 25
4 4 13 9 4 7 4 4 2 4 4 5 3 2 3 3 5 6 6 7 8 12 14 11 13 15 16 16 12 9 9 12 14 16 19 22 24 26 26 25 26 26 26 23
8 8 6 6 7 10 6 3 6 3 3 2 3 3 4 7 7 7 8 7 7 9 12 12 11 13 14 13 11 8 9 8 9 12 17 20 21 23 22 23 24 23 23 22
2 6 5 8 6 2 4 4 2 4 4 4 2 6 5 7 7 8 10 7 7 12 16 13 11 12 10 8 8 11 9 7 9 10 13 14 16 18 19 21 22 21 21 21
3 3 3 4 3 6 4 3 5 4 5 3 4 7 8 11 8 8 8 8 6 14 15 14 11 11 12 9 8 10 9 10 12 14 15 12 13 14 16 17 18 19 21 20
5 6 5 4 4 4 2 3 3 3 4 5 6 6 8 7 11 6 6 7 9 13 15 14 13 13 12 7 6 8 9 11 12 13 15 16 17 19 19 19 22 22 22 23
5 4 4 4 1 2 6 6 5 7 7 7 7 6 6 6 9 5 7 11 13 17 17 14 14 13 11 6 5 7 9 11 12 12 14 15 17 17 17 19 15 13 17 17
Wind_Direction
207 201 201 223 216 239 284 343 310 13 149 181 228 259 259 267 269 263 251 243 245 236 238 209 202 205 210 203 204 199 192 194 199 195 199 208 203 199 205 214 216 218 224 223
120 229 235 234 286 283 282 243 274 298 114 166 266 266 273 259 244 235 246 250 251 250 232 215 192 191 196 204 204 199 197 194 205 205 206 206 207 206 210 211 214 216 221 221
212 156 213 238 201 202 254 243 251 258 313 208 262 271 241 268 237 245 258 253 247 246 239 200 157 179 194 198 204 205 201 195 205 209 209 205 204 206 204 205 211 211 214 215
233 242 148 218 230 177 248 247 232 244 339 258 133 285 284 295 255 227 238 237 238 233 220 156 161 176 194 202 206 206 205 202 201 200 211 209 207 200 212 213 214 214 217 218
209 196 173 208 199 174 205 25 86 169 233 303 210 263 243 220 262 248 244 231 228 155 101 135 142 199 194 200 203 206 202 205 203 197 210 212 210 222 223 217 216 215 216 218
206 319 247 186 64 173 131 92 72 58 199 262 162 204 225 227 231 234 223 157 131 113 99 81 76 131 163 182 189 196 194 200 204 198 203 210 212 202 200 206 211 213 213 216
182 198 175 155 88 24 157 143 184 267 184 241 161 215 240 181 295 332 330 150 134 127 129 136 137 151 169 169 175 182 189 199 203 201 205 203 209 213 211 215 212 208 208 212
201 221 161 187 193 169 195 180 175 199 190 260 37 238 250 212 320 261 277 161 144 139 138 156 165 173 174 180 188 194 200 199 203 205 214 218 213 216 218 222 217 214 217 219
198 230 130 172 168 153 184 219 222 327 86 18 223 265 283 212 240 250 244 146 174 168 158 164 155 170 177 184 196 203 206 203 207 214 221 216 220 218 219 219 219 219 222 223
282 277 69 80 98 272 171 171 124 221 197 221 256 253 235 310 260 233 215 212 184 176 147 153 164 172 176 188 202 205 204 204 206 203 213 217 221 224 229 224 218 219 224 227
218 234 28 108 210 181 169 209 211 176 197 179 263 252 86 102 38 22 312 275 183 156 158 158 170 162 179 189 197 202 203 200 205 207 209 209 208 217 219 221 220 220 219 220
14 212 222 189 45 14 268 206 204 184 215 217 169 250 41 77 53 24 46 49 50 104 130 149 150 164 181 191 198 207 209 209 212 209 207 214 220 220 217 215 215 217 219 220
109 216 208 288 317 342 236 205 229 241 74 215 169 257 310 91 70 72 46 48 54 77 96 135 164 187 199 201 205 212 214 217 216 217 214 209 212 214 216 217 219 219 218 216
110 171 241 288 21 336 152 344 345 315 234 238 240 265 238 332 10 75 101 160 165 180 201 231 237 223 218 219 222 221 220 217 211 210 214 211 209 214 213 216 218 218 218 218
152 188 189 202 177 129 149 212 273 270 231 242 310 272 306 320 318 328 296 183 170 185 205 220 234 233 229 231 238 240 235 227 217 213 215 215 216 221 216 214 213 216 218 218
178 199 174 248 197 189 215 228 241 217 221 241 254 267 271 272 277 272 276 291 235 207 213 222 220 225 226 235 242 240 239 234 224 218 217 217 215 219 218 215 209 209 209 210
149 166 173 266 310 186 254 231 198 205 203 199 217 244 271 284 281 293 287 291 293 308 280 272 261 240 241 248 255 246 252 242 225 219 219 215 210 210 213 215 212 208 205 207
141 131 125 191 46 239 217 31 201 208 227 261 279 42 35 347 309 355 33 21 359 347 358 12 13 346 334 329 303 271 259 244 228 221 217 214 207 206 209 212 211 208 207 207
165 156 187 192 195 293 310 215 171 171 191 8 76 28 359 332 331 130 21 5 343 343 346 345 344 335 324 319 311 279 254 242 227 223 219 213 209 206 207 209 210 208 205 205
163 136 155 162 190 233 239 307 6 92 249 215 105 101 359 357 42 290 346 339 326 327 334 335 332 326 322 323 321 296 266 247 236 234 228 224 216 210 209 211 209 209 209 210
153 193 213 219 251 283 209 189 270 144 221 206 203 227 209 179 205 254 305 300 312 315 318 324 321 322 321 320 315 292 266 248 245 240 232 225 222 220 218 211 208 206 203 203
165 169 193 189 204 256 166 88 172 164 172 222 286 271 266 263 269 267 274 268 287 296 301 310 317 327 333 327 314 287 271 272 248 231 221 216 215 214 211 206 202 202 200 200
212 185 176 184 209 159 121 139 101 156 197 225 229 287 283 269 256 272 279 272 269 295 306 314 315 316 324 312 302 281 279 238 210 211 216 216 214 212 207 198 197 194 198 194
262 150 179 78 196 156 138 184 206 219 217 238 255 259 279 278 265 246 256 273 276 297 305 309 308 310 313 316 296 265 261 240 213 183 186 198 199 206 203 200 204 195 188 189
190 144 166 259 267 333 294 162 137 201 215 231 261 257 262 273 278 257 275 285 283 287 291 285 279 277 285 280 263 250 247 233 211 199 178 183 195 200 206 206 207 205 213 207
176 168 166 225 225 134 276 297 345 336 310 296 274 275 259 237 266 277 279 274 284 292 292 280 272 271 283 268 243 231 234 216 219 198 192 184 188 198 202 204 203 215 231 221